Wind_Speed
50 50 51 51 51 51 51 51 50 50 49 48 48 47 46 45 45 46 45 44 43 42 41 41 40 39 38 37 36 35 35 34 33 32 32 31 31 31 31 30 29 29 28
50 50 51 51 52 52 52 52 51 52 51 50 50 50 48 47 47 47 48 47 45 45 44 43 42 41 40 39 38 37 36 36 35 34 34 33 32 32 31 31 31 31 30
49 50 50 51 51 52 52 52 52 52 52 51 51 51 50 50 49 49 48 49 48 46 45 44 44 43 42 40 39 38 38 38 37 36 36 35 34 33 32 32 32 32 31
48 49 50 51 51 51 52 52 52 52 51 52 52 53 52 52 52 49 49 49 49 48 47 45 45 44 44 43 41 40 40 40 39 38 38 37 36 35 34 33 32 32 32
47 48 49 49 50 51 51 51 52 52 52 53 52 52 53 52 52 53 50 50 51 51 49 48 48 47 46 45 44 43 42 41 40 40 39 39 37 36 35 35 34 33 32
45 46 47 48 49 51 51 52 52 52 52 53 52 52 52 54 54 53 52 51 51 51 51 50 48 47 47 47 46 44 43 42 42 41 40 40 39 37 37 36 35 34 34
43 44 46 47 49 51 52 53 53 52 53 53 54 54 53 53 55 55 55 53 51 52 52 52 51 49 49 48 47 46 45 44 42 41 41 41 40 38 38 38 37 36 35
41 42 45 47 49 51 52 53 54 54 54 53 53 53 54 53 54 56 56 56 54 52 53 52 52 51 50 49 48 48 47 46 44 42 41 41 41 40 40 39 39 38 37
40 41 43 45 47 50 51 53 54 55 55 54 54 53 53 54 55 56 57 58 57 55 54 52 52 52 51 50 49 48 48 47 46 45 43 42 42 41 41 41 41 40 39
39 39 41 44 46 47 49 51 52 54 55 56 55 55 55 55 55 55 56 58 58 58 56 54 53 52 51 51 50 49 49 48 48 47 46 45 44 43 43 42 42 42 41
39 39 40 42 44 46 48 49 50 51 53 54 55 56 56 55 55 55 56 57 59 59 58 56 55 53 53 52 51 50 50 49 49 49 48 47 46 46 45 44 44 43 42
40 39 39 41 43 44 47 48 50 50 52 52 53 53 54 54 55 55 56 57 58 60 60 58 57 56 54 54 54 53 52 51 51 50 49 48 47 47 46 46 45 45 45
40 40 40 41 43 43 45 47 49 50 51 52 52 52 53 53 53 54 54 56 58 58 60 59 58 57 56 55 55 55 54 52 51 51 50 49 49 48 48 48 47 47 47
40 40 41 41 42 43 45 46 48 49 50 51 52 52 53 53 53 53 53 54 56 57 58 58 58 58 58 56 56 56 55 54 52 51 50 50 50 50 50 49 49 49 48
38 40 41 41 42 44 44 46 47 49 50 51 52 52 52 53 53 54 53 53 55 56 58 58 58 57 57 56 57 57 56 55 54 54 52 51 51 51 51 50 50 50 49
37 39 40 40 41 43 44 46 48 49 50 51 51 52 53 53 53 53 53 53 54 55 57 57 57 57 56 57 58 59 58 57 56 55 54 53 53 52 52 51 51 50 50
34 36 38 39 40 41 43 46 48 50 51 51 51 51 52 54 55 53 53 53 54 55 56 57 57 56 56 57 58 58 58 58 57 57 55 54 54 54 53 52 52 51 51
33 34 36 37 39 40 42 43 45 47 49 50 51 52 52 52 53 54 53 53 54 55 56 57 58 58 58 57 58 58 59 59 59 58 56 55 54 54 54 53 52 51 52
32 33 34 36 37 39 41 43 44 46 47 49 51 51 52 53 53 53 53 52 53 53 54 56 57 58 58 59 59 58 58 59 59 58 58 56 56 55 54 54 53 53 52
31 31 32 34 36 38 39 41 42 44 45 47 49 50 52 53 54 54 53 53 52 52 53 55 56 57 57 58 59 59 59 59 58 58 57 56 56 55 54 54 54 53 52
30 30 31 33 34 36 37 38 40 42 44 45 47 47 49 51 52 53 54 54 53 52 52 53 54 55 56 57 58 59 59 58 57 57 56 56 55 55 55 55 54 54 53
29 30 31 31 32 33 35 36 38 40 42 44 45 46 48 49 50 51 53 53 53 53 53 53 53 54 54 54 55 56 57 57 56 56 56 57 57 56 56 56 55 55 54
28 29 29 30 31 32 33 34 35 37 39 41 42 44 45 47 48 49 50 51 52 52 52 52 52 52 52 52 53 54 54 55 55 55 55 55 55 56 56 56 55 55 54
28 28 28 28 29 30 31 32 33 34 35 37 39 40 42 44 45 46 47 48 49 50 50 50 51 51 50 51 52 52 52 54 54 55 54 54 54 55 55 55 56 56 55
27 27 27 27 27 28 29 29 30 31 33 34 35 37 39 40 42 43 44 46 47 49 50 50 51 50 50 50 51 51 52 52 54 54 54 54 54 54 55 55 55 55 55
27 26 27 26 26 26 27 28 29 29 30 31 32 33 35 37 38 40 42 43 43 45 47 49 50 51 50 50 50 49 49 50 51 52 52 53 53 54 54 55 55 55 55
Wind_Direction
241 241 240 239 238 238 237 237 237 236 236 236 235 235 236 237 238 238 239 239 239 239 240 241 242 243 244 244 244 245 246 245 246 247 248 250 251 252 253 255 256 257 259
240 240 240 239 239 238 237 236 236 237 237 236 236 236 237 237 238 238 239 238 238 240 241 241 242 243 244 243 244 245 246 245 246 247 248 249 251 252 253 255 256 257 259
240 240 240 239 239 238 237 237 237 237 237 237 238 238 237 238 238 238 238 238 237 238 239 240 241 241 242 242 242 243 245 246 247 248 249 249 250 252 253 254 255 256 257
240 239 239 239 238 238 237 237 237 237 238 239 239 239 238 238 238 238 237 237 237 237 237 238 239 239 240 242 242 243 244 246 246 248 249 249 250 251 252 253 255 257 257
241 240 239 239 239 238 237 237 237 237 239 239 239 239 238 238 238 237 236 236 236 237 237 237 238 239 239 240 242 243 244 245 246 248 249 249 250 251 252 253 255 256 256
243 241 240 239 238 238 237 236 237 238 239 239 239 240 239 238 238 237 236 236 236 236 236 237 238 238 238 239 241 243 244 245 246 248 249 248 249 250 252 252 253 255 256
243 243 241 240 239 239 238 238 238 238 239 239 240 240 240 239 239 238 237 237 237 237 237 237 239 239 239 240 241 242 243 245 246 247 248 248 249 250 251 251 252 254 256
245 245 244 243 242 240 240 240 240 240 240 240 240 239 239 239 240 240 239 238 238 239 238 238 239 239 240 241 242 243 243 244 244 245 246 247 249 250 251 251 252 253 255
248 247 246 245 244 243 242 241 240 240 240 241 240 240 240 241 241 241 240 240 240 240 239 239 239 239 239 240 241 243 244 244 243 244 245 246 248 250 250 251 251 253 255
249 248 248 247 245 245 244 242 241 241 241 242 242 242 241 242 242 242 241 241 241 241 241 240 240 239 240 240 241 243 244 245 245 245 245 246 247 248 249 250 252 253 254
249 249 249 249 247 245 244 243 241 241 241 242 243 243 242 243 243 242 242 242 241 242 243 243 241 241 240 240 242 243 244 245 246 247 247 247 248 249 250 251 252 253 254
251 250 250 249 248 246 245 244 243 242 242 242 243 243 242 243 243 243 242 242 242 242 242 243 243 243 242 241 242 242 243 245 246 246 247 247 249 250 250 251 252 254 255
254 252 251 250 248 247 245 244 243 242 242 242 243 243 243 243 243 242 242 241 242 242 243 243 243 243 243 242 241 242 243 244 244 246 247 246 247 249 250 251 252 254 256
258 255 254 252 250 248 246 244 243 242 241 242 243 243 243 243 243 243 242 242 242 242 242 242 242 242 242 242 242 242 242 243 244 246 247 247 247 248 250 251 252 254 256
260 257 256 255 253 250 248 246 244 243 243 243 245 245 244 243 243 243 243 243 242 242 242 241 242 242 241 240 240 242 242 242 244 245 246 247 248 249 249 250 252 254 256
262 259 257 256 255 253 250 248 246 245 245 245 245 246 244 242 243 243 243 243 242 242 242 242 241 241 240 240 241 242 243 243 245 245 245 246 248 248 249 250 252 254 256
265 262 259 256 255 254 252 251 250 249 247 246 246 246 245 244 243 244 245 244 243 242 242 242 241 241 242 242 242 243 245 245 246 246 246 247 248 249 250 251 252 254 256
267 263 260 258 257 255 255 254 252 251 249 248 248 248 247 245 244 244 246 245 244 243 243 243 242 242 243 243 244 244 244 245 245 246 246 247 249 250 251 251 252 254 256
269 266 263 261 259 257 256 256 254 253 251 250 250 250 249 247 245 245 246 246 245 245 244 244 243 243 243 244 244 244 244 244 245 246 246 247 248 249 250 252 252 253 255
269 267 265 263 261 260 258 256 255 255 254 254 252 252 251 249 248 247 246 246 246 246 246 245 244 243 243 244 244 243 244 244 245 245 246 247 248 249 251 253 253 254 255
272 269 268 265 263 261 260 258 256 256 256 255 254 253 252 251 249 248 248 248 248 247 247 245 245 245 245 245 245 244 245 245 246 247 247 248 249 249 252 253 254 255 255
275 272 271 269 266 263 262 261 259 258 258 257 256 254 253 252 250 249 249 249 248 248 247 246 245 245 246 246 245 245 245 246 247 247 248 248 249 250 251 253 254 254 255
278 276 273 271 269 266 265 263 262 260 259 258 257 255 253 251 251 250 248 248 248 247 247 246 246 246 246 246 245 245 246 247 247 248 249 249 249 249 251 252 254 254 255
281 278 276 274 272 271 270 267 265 262 260 258 257 255 253 252 251 249 248 248 247 247 246 246 246 246 245 245 245 245 246 247 247 247 248 249 249 250 251 252 253 254 255
284 281 278 276 274 273 273 271 268 265 264 262 258 255 254 252 251 250 249 249 249 248 247 247 246 245 245 245 245 246 247 247 248 248 249 249 250 250 251 252 253 254 255
284 282 279 277 275 274 274 272 269 268 266 263 261 258 256 255 253 252 251 250 249 248 247 247 246 245 244 245 245 246 247 247 248 248 249 249 250 250 251 253 253 254 256
Height
5675 5679 5683 5687 5692 5697 5702 5707 5711 5716 5721 5725 5730 5735 5739 5743 5747 5751 5755 5759 5763 5767 5770 5774 5778 5781 5785 5788 5791 5794 5797 5800 5802 5805 5807 5809 5811 5813 5815 5817 5818 5820 5821
5662 5666 5670 5675 5680 5685 5689 5694 5700 5704 5709 5714 5719 5724 5728 5733 5737 5740 5744 5749 5753 5757 5761 5765 5768 5772 5775 5779 5782 5786 5789 5792 5795 5797 5799 5802 5804 5806 5808 5810 5812 5813 5815
5650 5654 5658 5663 5667 5672 5677 5682 5687 5692 5697 5702 5707 5711 5716 5721 5724 5728 5732 5737 5742 5746 5750 5754 5758 5762 5766 5769 5773 5776 5780 5783 5786 5789 5792 5794 5796 5798 5800 5802 5804 5806 5808
5637 5642 5646 5651 5655 5660 5665 5671 5676 5681 5685 5690 5694 5699 5704 5709 5713 5717 5721 5726 5731 5736 5740 5743 5748 5752 5756 5760 5763 5766 5770 5774 5777 5780 5783 5786 5788 5791 5793 5795 5797 5799 5800
5626 5630 5634 5639 5643 5648 5653 5659 5664 5669 5673 5678 5682 5687 5692 5697 5701 5706 5710 5715 5719 5724 5729 5733 5737 5741 5746 5750 5753 5757 5760 5764 5767 5770 5773 5776 5779 5782 5785 5787 5789 5791 5793
5615 5618 5623 5627 5631 5636 5641 5646 5652 5657 5661 5666 5670 5675 5680 5685 5689 5694 5698 5703 5708 5713 5717 5722 5726 5730 5735 5739 5743 5747 5750 5754 5758 5761 5764 5767 5770 5773 5776 5778 5781 5783 5785
5604 5608 5612 5615 5619 5624 5629 5634 5639 5644 5649 5653 5658 5662 5667 5672 5677 5682 5687 5691 5696 5701 5706 5710 5715 5719 5724 5728 5732 5736 5740 5744 5748 5751 5754 5757 5761 5764 5766 5769 5772 5774 5776
5594 5597 5601 5604 5607 5612 5616 5621 5626 5631 5636 5641 5645 5650 5655 5660 5664 5670 5675 5679 5684 5689 5694 5698 5703 5708 5713 5717 5721 5725 5729 5733 5737 5741 5744 5748 5751 5754 5757 5760 5762 5765 5768
5584 5587 5590 5593 5596 5600 5604 5609 5613 5618 5623 5628 5632 5637 5642 5647 5652 5657 5662 5667 5672 5677 5681 5686 5691 5696 5701 5706 5710 5715 5719 5723 5727 5731 5734 5737 5741 5744 5747 5750 5753 5756 5758
5574 5576 5579 5581 5584 5587 5591 5596 5600 5605 5610 5615 5619 5624 5629 5633 5638 5643 5649 5654 5659 5663 5669 5673 5679 5684 5689 5694 5699 5703 5708 5712 5716 5720 5723 5727 5730 5733 5736 5739 5742 5745 5748
5564 5566 5568 5570 5573 5576 5579 5583 5588 5592 5597 5601 5606 5611 5615 5619 5624 5630 5635 5640 5645 5650 5656 5661 5666 5671 5676 5682 5687 5692 5696 5701 5705 5708 5712 5716 5719 5723 5726 5729 5731 5734 5737
5554 5556 5558 5559 5562 5564 5567 5571 5576 5580 5585 5589 5593 5597 5601 5606 5611 5616 5621 5626 5631 5637 5642 5647 5653 5658 5663 5669 5674 5679 5684 5689 5693 5697 5700 5704 5708 5711 5714 5718 5721 5723 5726
5545 5546 5548 5549 5551 5553 5556 5560 5564 5568 5572 5576 5580 5584 5589 5593 5598 5602 5607 5612 5617 5623 5628 5633 5639 5645 5650 5655 5661 5666 5671 5676 5680 5684 5688 5692 5696 5700 5703 5706 5709 5712 5714
5535 5536 5537 5539 5541 5542 5545 5548 5552 5556 5560 5564 5567 5572 5576 5581 5585 5589 5594 5599 5604 5609 5614 5620 5625 5630 5636 5642 5647 5652 5658 5663 5668 5672 5676 5680 5684 5688 5691 5694 5697 5700 5703
5525 5526 5527 5528 5530 5532 5535 5538 5541 5545 5548 5552 5555 5559 5563 5568 5572 5576 5581 5586 5591 5595 5600 5605 5611 5616 5622 5627 5633 5638 5644 5649 5654 5659 5663 5667 5672 5675 5679 5682 5685 5688 5690
5516 5516 5517 5519 5520 5522 5524 5527 5530 5533 5536 5540 5543 5546 5550 5555 5559 5564 5568 5572 5577 5582 5587 5592 5597 5602 5607 5613 5618 5624 5630 5635 5640 5645 5650 5654 5658 5662 5666 5669 5672 5675 5678
5507 5507 5508 5509 5510 5512 5514 5516 5519 5521 5524 5528 5531 5534 5538 5542 5546 5551 5555 5558 5563 5568 5573 5578 5583 5588 5594 5598 5603 5609 5615 5620 5626 5631 5636 5640 5645 5648 5652 5656 5659 5662 5665
5498 5498 5499 5500 5501 5502 5503 5505 5507 5509 5512 5515 5519 5522 5525 5529 5533 5537 5541 5545 5549 5554 5559 5564 5569 5574 5580 5584 5589 5594 5599 5605 5611 5617 5622 5627 5631 5635 5639 5642 5646 5649 5652
5490 5489 5489 5490 5491 5492 5493 5495 5496 5498 5501 5503 5506 5509 5511 5515 5519 5523 5528 5532 5536 5540 5544 5550 5555 5560 5565 5570 5575 5580 5585 5591 5597 5602 5607 5612 5617 5621 5625 5628 5632 5635 5638
5482 5481 5481 5481 5481 5482 5482 5484 5485 5487 5489 5491 5493 5496 5498 5502 5506 5510 5514 5518 5522 5526 5530 5535 5540 5545 5550 5555 5560 5565 5571 5577 5583 5588 5593 5598 5602 5606 5610 5614 5618 5621 5624
5473 5472 5472 5471 5471 5471 5472 5473 5474 5476 5477 5479 5481 5483 5486 5489 5492 5496 5500 5504 5508 5513 5517 5521 5526 5531 5536 5541 5546 5551 5556 5562 5567 5572 5578 5583 5587 5592 5596 5600 5603 5607 5610
5465 5463 5463 5462 5462 5461 5461 5462 5463 5464 5465 5466 5469 5470 5473 5475 5478 5482 5486 5490 5494 5498 5503 5507 5512 5517 5522 5527 5532 5537 5542 5547 5553 5558 5563 5568 5573 5577 5581 5585 5589 5592 5595
5457 5455 5454 5453 5453 5452 5451 5452 5452 5452 5453 5455 5456 5458 5460 5462 5465 5468 5472 5476 5480 5484 5489 5494 5499 5503 5508 5513 5518 5523 5528 5533 5538 5544 5549 5554 5558 5562 5566 5570 5573 5577 5580
5449 5447 5446 5445 5444 5443 5442 5442 5442 5442 5442 5443 5444 5446 5447 5450 5452 5455 5458 5462 5466 5470 5475 5480 5485 5490 5495 5499 5504 5509 5514 5519 5524 5529 5534 5538 5542 5546 5550 5554 5558 5562 5565
5440 5439 5437 5436 5435 5434 5433 5432 5432 5432 5432 5433 5433 5434 5436 5438 5440 5443 5446 5449 5453 5456 5462 5467 5472 5477 5482 5486 5490 5495 5500 5505 5510 5514 5519 5523 5527 5531 5536 5540 5543 5547 5550
5433 5431 5429 5428 5427 5426 5425 5424 5423 5423 5423 5423 5424 5424 5425 5427 5429 5431 5434 5436 5440 5443 5448 5453 5458 5463 5468 5473 5477 5482 5487 5491 5495 5499 5504 5509 5513 5517 5521 5525 5529 5532 5535